Location: Beugnon
(47.6222°N, 3.7850°E)
Time: 08:17:37
(UTC+00:00)

SL-08 RB Rocket - Pass Details

Date: 09 April 2020
Orbit: 646 x 685 km, 97.8° (Epoch: 01 June)

Event Time Altitude Azimuth Distance (km) Brightness Sun altitude
Exits shadow 18:56:16 - 146° (SE) 2,985 6.6 -5.6°
Reaches altitude 10° 18:58:32 10° 140° (SE) 2,088 5.7 -6.0°
Maximum altitude 19:02:50 43° 69° (ENE) 950 4.2 -6.7°
Drops below altitude 10° 19:07:13 10° 359° (N) 2,125 6.6 -7.4°
Sets 19:09:33 0° 353° (N) 3,050 7.5 -7.8°
